,,,PA_Meas_PMT16A,,PR_Meas_QMR101_102,,RH_Meas_QMH101,,SR_Meas_QMS101,,TA_Meas_QMH101,,GenWind,,GenWind,
date,time,status,PA,status,PR,status,RH,status,SR,status,TA,status,DirAvg,status,SpdAvg,
2011-02-22, 00:00:05,VALID,1002.1,VALID,0,VALID,93.7375,VALID,0,VALID,22.2771,VALID,205,VALID,0.780469,
2011-02-22, 00:01:05,VALID,1002.06,VALID,0.5,VALID,93.7375,VALID,0,VALID,22.2381,VALID,221,VALID,1.11953,
2011-02-22, 00:02:05,VALID,1002.06,VALID,0,VALID,93.7375,VALID,0,VALID,22.2381,VALID,208,VALID,1.11758,
2011-02-22, 00:03:05,VALID,1002.02,VALID,0,VALID,93.7451,VALID,0.112286,VALID,22.2364,VALID,220,VALID,1.13672,
2011-02-22, 00:04:05,VALID,1001.99,VALID,0,VALID,93.7299,VALID,0.112286,VALID,22.2364,VALID,191,VALID,1.0168,
2011-02-22, 00:05:05,VALID,1002.02,VALID,0,VALID,93.7604,VALID,0,VALID,22.2381,VALID,196,VALID,1.43555,
2011-02-22, 00:06:05,VALID,1001.98,VALID,0,VALID,93.7528,VALID,0.112286,VALID,22.199,VALID,192,VALID,0.946094,
2011-02-22, 00:07:05,VALID,1001.99,VALID,0,VALID,93.7375,VALID,0,VALID,22.2169,VALID,193,VALID,1.08086,
2011-02-22, 00:08:05,VALID,1002,VALID,0,VALID,93.7375,VALID,0,VALID,22.2576,VALID,195,VALID,1.03516,
2011-02-22, 00:09:05,VALID,1002.02,VALID,0,VALID,93.7528,VALID,0.112286,VALID,22.2771,VALID,191,VALID,1.00664,
2011-02-22, 00:10:05,VALID,1002.03,VALID,0.5,VALID,93.7375,VALID,0.112286,VALID,22.2364,VALID,158,VALID,0.903125,
2011-02-22, 00:11:05,VALID,1002.05,VALID,0,VALID,93.7375,VALID,0,VALID,22.2559,VALID,150,VALID,0.79375,
2011-02-22, 00:12:05,VALID,1002.05,VALID,0,VALID,93.7451,VALID,0,VALID,22.2576,VALID,149,VALID,0.528516,
2011-02-22, 00:13:05,VALID,1002.05,VALID,0,VALID,93.7451,VALID,0,VALID,22.2186,VALID,117,VALID,0.973437,
2011-02-22, 00:14:05,VALID,1002.07,VALID,0,VALID,93.7375,VALID,0,VALID,22.2397,VALID,117,VALID,1.23242,
2011-02-22, 00:15:05,VALID,1002.08,VALID,0,VALID,93.7528,VALID,0,VALID,22.199,VALID,117,VALID,0.817578,
2011-02-22, 00:16:05,VALID,1002.05,VALID,0,VALID,93.7375,VALID,0,VALID,22.2202,VALID,114,VALID,1.38164,
2011-02-22, 00:17:05,VALID,1002.02,VALID,0,VALID,93.7528,VALID,0,VALID,22.2202,VALID,115,VALID,1.28789,
2011-02-22, 00:18:05,VALID,1002.02,VALID,0,VALID,93.7528,VALID,0,VALID,22.2007,VALID,118,VALID,1.06562,
2011-02-22, 00:19:05,VALID,1002.02,VALID,0,VALID,93.7451,VALID,0,VALID,22.199,VALID,125,VALID,0.783984,
2011-02-22, 00:20:05,VALID,1002,VALID,0.5,VALID,93.7375,VALID,0,VALID,22.2397,VALID,128,VALID,1.03086,
2011-02-22, 00:21:05,VALID,1001.99,VALID,0,VALID,93.7604,VALID,0,VALID,22.2397,VALID,127,VALID,1.10859,
2011-02-22, 00:22:05,VALID,1001.97,VALID,0,VALID,93.7528,VALID,0,VALID,22.2186,VALID,127,VALID,0.71875,
2011-02-22, 00:23:05,VALID,1001.93,VALID,0,VALID,93.7375,VALID,0,VALID,22.2381,VALID,151,VALID,0.842578,
2011-02-22, 00:24:05,VALID,1001.89,VALID,0,VALID,93.7528,VALID,0,VALID,22.2397,VALID,153,VALID,0.965625,
2011-02-22, 00:25:05,VALID,1001.89,VALID,0,VALID,93.7451,VALID,0,VALID,22.199,VALID,154,VALID,1.06016,
2011-02-22, 00:26:05,VALID,1001.88,VALID,0,VALID,93.7375,VALID,0,VALID,22.199,VALID,159,VALID,1.09805,
2011-02-22, 00:27:05,VALID,1001.84,VALID,0,VALID,93.7375,VALID,0,VALID,22.2007,VALID,160,VALID,1.04922,
2011-02-22, 00:28:05,VALID,1001.8,VALID,0,VALID,93.7528,VALID,0,VALID,22.199,VALID,160,VALID,1.44922,
2011-02-22, 00:29:05,VALID,1001.78,VALID,0,VALID,93.7528,VALID,0,VALID,22.2202,VALID,157,VALID,1.15273,
2011-02-22, 00:30:05,VALID,1001.77,VALID,0,VALID,93.768,VALID,0,VALID,22.1795,VALID,160,VALID,1.23711,
2011-02-22, 00:31:05,VALID,1001.72,VALID,0,VALID,93.7375,VALID,0,VALID,22.2397,VALID,157,VALID,0.939844,
2011-02-22, 00:32:05,VALID,1001.73,VALID,0,VALID,93.7451,VALID,0,VALID,22.2576,VALID,157,VALID,1.0332,
2011-02-22, 00:33:05,VALID,1001.69,VALID,0,VALID,93.7528,VALID,0,VALID,22.2592,VALID,157,VALID,1.28555,
2011-02-22, 00:34:05,VALID,1001.68,VALID,0,VALID,93.7604,VALID,0,VALID,22.2186,VALID,157,VALID,1.2082,
2011-02-22, 00:35:05,VALID,1001.67,VALID,0,VALID,93.7451,VALID,0,VALID,22.2186,VALID,157,VALID,0.855469,
2011-02-22, 00:36:05,VALID,1001.65,VALID,0,VALID,93.7451,VALID,0,VALID,22.2381,VALID,157,VALID,0.808203,
2011-02-22, 00:37:05,VALID,1001.65,VALID,0,VALID,93.7451,VALID,0,VALID,22.2186,VALID,157,VALID,0.660156,
2011-02-22, 00:38:05,VALID,1001.64,VALID,0.5,VALID,93.7528,VALID,0,VALID,22.2186,VALID,157,VALID,0.709766,
2011-02-22, 00:39:05,VALID,1001.67,VALID,0,VALID,93.7528,VALID,0,VALID,22.2381,VALID,185,VALID,0.617969,
2011-02-22, 00:40:05,VALID,1001.7,VALID,0,VALID,93.7528,VALID,0,VALID,22.2397,VALID,185,VALID,0.00585938,
2011-02-22, 00:41:05,VALID,1001.7,VALID,0,VALID,93.7528,VALID,0,VALID,22.2381,VALID,185,VALID,0.0777344,
2011-02-22, 00:42:05,VALID,1001.72,VALID,0,VALID,93.7451,VALID,0,VALID,22.2397,VALID,314,VALID,0.737109,
2011-02-22, 00:43:05,VALID,1001.7,VALID,0,VALID,93.7604,VALID,0,VALID,22.2381,VALID,317,VALID,0.95,
2011-02-22, 00:44:05,VALID,1001.71,VALID,0,VALID,93.7451,VALID,0,VALID,22.2788,VALID,330,VALID,0.853516,
2011-02-22, 00:45:05,VALID,1001.65,VALID,0,VALID,93.7299,VALID,0,VALID,22.2381,VALID,330,VALID,0.609375,
2011-02-22, 00:46:05,VALID,1001.65,VALID,0,VALID,93.7299,VALID,0,VALID,22.2983,VALID,330,VALID,0.652344,
2011-02-22, 00:47:05,VALID,1001.62,VALID,0,VALID,93.7604,VALID,0,VALID,22.2771,VALID,330,VALID,0.370313,
2011-02-22, 00:48:05,VALID,1001.65,VALID,0,VALID,93.7299,VALID,0,VALID,22.2983,VALID,330,VALID,0.463281,
2011-02-22, 00:49:05,VALID,1001.68,VALID,0,VALID,93.7451,VALID,0,VALID,22.2983,VALID,330,VALID,0.732813,
2011-02-22, 00:50:05,VALID,1001.68,VALID,0,VALID,93.7375,VALID,0,VALID,22.2771,VALID,330,VALID,0.838281,
2011-02-22, 00:51:05,VALID,1001.7,VALID,0,VALID,93.7528,VALID,0,VALID,22.2771,VALID,309,VALID,0.773047,
2011-02-22, 00:52:05,VALID,1001.68,VALID,0,VALID,93.7528,VALID,0,VALID,22.2788,VALID,309,VALID,0.678516,
2011-02-22, 00:53:05,VALID,1001.68,VALID,0,VALID,93.7299,VALID,0,VALID,22.2788,VALID,309,VALID,0.689453,
2011-02-22, 00:54:05,VALID,1001.64,VALID,0,VALID,93.7375,VALID,0,VALID,22.2771,VALID,314,VALID,0.5875,
2011-02-22, 00:55:05,VALID,1001.64,VALID,0,VALID,93.7451,VALID,0,VALID,22.2381,VALID,341,VALID,0.884375,
2011-02-22, 00:56:05,VALID,1001.63,VALID,0,VALID,93.7375,VALID,0,VALID,22.2186,VALID,341,VALID,0.743359,
2011-02-22, 00:57:05,VALID,1001.6,VALID,0,VALID,93.7604,VALID,0,VALID,22.2186,VALID,340,VALID,0.746484,
2011-02-22, 00:58:05,VALID,1001.58,VALID,0,VALID,93.7528,VALID,0,VALID,22.2007,VALID,340,VALID,0.825781,
2011-02-22, 00:59:05,VALID,1001.59,VALID,0,VALID,93.7451,VALID,0,VALID,22.2007,VALID,310,VALID,0.933203,
2011-02-22, 01:00:05,VALID,1001.58,VALID,0,VALID,93.7757,VALID,0,VALID,22.199,VALID,1,VALID,0.870313,
2011-02-22, 01:01:05,VALID,1001.56,VALID,0,VALID,93.7528,VALID,0,VALID,22.2007,VALID,10,VALID,0.694531,
2011-02-22, 01:02:05,VALID,1001.55,VALID,0,VALID,93.7757,VALID,0,VALID,22.16,VALID,3,VALID,0.794922,
2011-02-22, 01:03:05,VALID,1001.54,VALID,0,VALID,93.768,VALID,0,VALID,22.1405,VALID,338,VALID,0.642187,
2011-02-22, 01:04:05,VALID,1001.51,VALID,0,VALID,93.7833,VALID,0,VALID,22.1422,VALID,338,VALID,0.313672,
2011-02-22, 01:05:05,VALID,1001.5,VALID,0,VALID,93.7757,VALID,0,VALID,22.121,VALID,338,VALID,0.438281,
2011-02-22, 01:06:05,VALID,1001.44,VALID,0,VALID,93.768,VALID,0,VALID,22.1405,VALID,338,VALID,0.159375,
2011-02-22, 01:07:05,VALID,1001.43,VALID,0,VALID,93.7833,VALID,0,VALID,22.121,VALID,300,VALID,0.481641,
2011-02-22, 01:08:05,VALID,1001.39,VALID,0,VALID,93.7833,VALID,0,VALID,22.1015,VALID,300,VALID,0.338672,
2011-02-22, 01:09:05,VALID,1001.35,VALID,0,VALID,93.7757,VALID,0,VALID,22.1015,VALID,300,VALID,0.283203,
2011-02-22, 01:10:05,VALID,1001.33,VALID,0,VALID,93.7757,VALID,0,VALID,22.1227,VALID,337,VALID,0.50625,
2011-02-22, 01:11:05,VALID,1001.28,VALID,0,VALID,93.7833,VALID,0,VALID,22.1032,VALID,343,VALID,0.423047,
2011-02-22, 01:12:05,VALID,1001.27,VALID,0,VALID,93.768,VALID,0,VALID,22.082,VALID,347,VALID,0.217969,
2011-02-22, 01:13:05,VALID,1001.21,VALID,0,VALID,93.7757,VALID,0,VALID,22.0837,VALID,347,VALID,0.585547,
2011-02-22, 01:14:05,VALID,1001.19,VALID,0,VALID,93.7757,VALID,0,VALID,22.0837,VALID,138,VALID,0.778516,
2011-02-22, 01:15:05,VALID,1001.15,VALID,0,VALID,93.7909,VALID,0,VALID,22.043,VALID,166,VALID,0.521875,
2011-02-22, 01:16:05,VALID,1001.14,VALID,0,VALID,93.7833,VALID,0,VALID,22.0642,VALID,166,VALID,0.302344,
2011-02-22, 01:17:05,VALID,1001.11,VALID,0,VALID,93.7909,VALID,0,VALID,22.043,VALID,166,VALID,0.407813,
2011-02-22, 01:18:05,VALID,1001.13,VALID,0,VALID,93.7909,VALID,0,VALID,22.0447,VALID,166,VALID,0.021875,
2011-02-22, 01:19:05,VALID,1001.2,VALID,0,VALID,93.8214,VALID,0,VALID,22.0447,VALID,166,VALID,0.0460938,
2011-02-22, 01:20:05,VALID,1001.22,VALID,0,VALID,93.7985,VALID,0,VALID,22.0642,VALID,166,VALID,0.41875,
2011-02-22, 01:21:05,VALID,1001.21,VALID,0,VALID,93.7909,VALID,0,VALID,22.0642,VALID,166,VALID,0.582422,
2011-02-22, 01:22:05,VALID,1001.23,VALID,0,VALID,93.7909,VALID,0,VALID,22.0837,VALID,322,VALID,0.686328,
2011-02-22, 01:23:05,VALID,1001.25,VALID,0,VALID,93.7757,VALID,0,VALID,22.0625,VALID,322,VALID,0.609375,
2011-02-22, 01:24:05,VALID,1001.27,VALID,0,VALID,93.768,VALID,0,VALID,22.1032,VALID,322,VALID,0.520703,
2011-02-22, 01:25:05,VALID,1001.28,VALID,0,VALID,93.7757,VALID,0,VALID,22.1227,VALID,322,VALID,0.229297,
2011-02-22, 01:26:05,VALID,1001.3,VALID,0,VALID,93.7909,VALID,0,VALID,22.1032,VALID,322,VALID,0.156641,
2011-02-22, 01:27:05,VALID,1001.27,VALID,0,VALID,93.7833,VALID,0,VALID,22.1227,VALID,322,VALID,0,
2011-02-22, 01:28:05,VALID,1001.3,VALID,0,VALID,93.7833,VALID,0,VALID,22.1015,VALID,322,VALID,0,
2011-02-22, 01:29:05,VALID,1001.31,VALID,0,VALID,93.7909,VALID,0,VALID,22.1227,VALID,322,VALID,0,
2011-02-22, 01:30:05,VALID,1001.33,VALID,0,VALID,93.7833,VALID,0,VALID,22.1422,VALID,322,VALID,0.00585938,
2011-02-22, 01:31:05,VALID,1001.32,VALID,0,VALID,93.7604,VALID,0,VALID,22.1227,VALID,322,VALID,0.295312,
2011-02-22, 01:32:05,VALID,1001.34,VALID,0,VALID,93.7833,VALID,0,VALID,22.121,VALID,322,VALID,0.456641,
2011-02-22, 01:33:05,VALID,1001.35,VALID,0,VALID,93.768,VALID,0,VALID,22.121,VALID,322,VALID,0.492969,
2011-02-22, 01:34:05,VALID,1001.39,VALID,0,VALID,93.7833,VALID,0,VALID,22.1422,VALID,322,VALID,0.436328,
2011-02-22, 01:35:05,VALID,1001.37,VALID,0,VALID,93.7833,VALID,0,VALID,22.121,VALID,344,VALID,0.923047,
2011-02-22, 01:36:05,VALID,1001.36,VALID,0,VALID,93.7604,VALID,0,VALID,22.121,VALID,347,VALID,1.33711,
2011-02-22, 01:37:05,VALID,1001.39,VALID,0,VALID,93.7833,VALID,0,VALID,22.1422,VALID,341,VALID,1.45664,
2011-02-22, 01:38:05,VALID,1001.39,VALID,0,VALID,93.7757,VALID,0,VALID,22.1015,VALID,346,VALID,0.798828,
2011-02-22, 01:39:05,VALID,1001.38,VALID,0.5,VALID,93.7909,VALID,0,VALID,22.121,VALID,346,VALID,0.801953,
2011-02-22, 01:40:05,VALID,1001.36,VALID,0,VALID,93.7833,VALID,0,VALID,22.1422,VALID,346,VALID,0.745313,
2011-02-22, 01:41:05,VALID,1001.33,VALID,0.5,VALID,93.7757,VALID,0,VALID,22.1617,VALID,340,VALID,0.323828,
2011-02-22, 01:42:05,VALID,1001.32,VALID,0,VALID,93.768,VALID,0,VALID,22.1422,VALID,340,VALID,0.355469,
2011-02-22, 01:43:05,VALID,1001.34,VALID,0.5,VALID,93.7757,VALID,0,VALID,22.1617,VALID,340,VALID,0.0269531,
2011-02-22, 01:44:05,VALID,1001.35,VALID,0,VALID,93.7833,VALID,0,VALID,22.1617,VALID,340,VALID,0.150391,
2011-02-22, 01:45:05,VALID,1001.29,VALID,0,VALID,93.7833,VALID,0,VALID,22.1422,VALID,340,VALID,0.625781,
2011-02-22, 01:46:05,VALID,1001.31,VALID,0,VALID,93.7757,VALID,0,VALID,22.1617,VALID,340,VALID,0.782422,
2011-02-22, 01:47:05,VALID,1001.32,VALID,0,VALID,93.7833,VALID,0,VALID,22.1227,VALID,340,VALID,0.508203,
2011-02-22, 01:48:05,VALID,1001.31,VALID,0,VALID,93.7833,VALID,0,VALID,22.1422,VALID,340,VALID,0.703906,
2011-02-22, 01:49:05,VALID,1001.31,VALID,0,VALID,93.768,VALID,0,VALID,22.1422,VALID,336,VALID,0.527734,
2011-02-22, 01:50:05,VALID,1001.27,VALID,0,VALID,93.7528,VALID,0,VALID,22.1422,VALID,328,VALID,1.32813,
2011-02-22, 01:51:04,VALID,1001.28,VALID,0,VALID,93.7757,VALID,0,VALID,22.1422,VALID,333,VALID,0.864453,
2011-02-22, 01:52:04,VALID,1001.26,VALID,0,VALID,93.7757,VALID,0,VALID,22.1422,VALID,347,VALID,0.66875,
2011-02-22, 01:53:04,VALID,1001.24,VALID,0,VALID,93.768,VALID,0,VALID,22.1422,VALID,4,VALID,0.535547,
2011-02-22, 01:54:04,VALID,1001.24,VALID,0,VALID,93.7757,VALID,0,VALID,22.1422,VALID,4,VALID,0.532422,
2011-02-22, 01:55:04,VALID,1001.2,VALID,0.5,VALID,93.7985,VALID,0,VALID,22.121,VALID,4,VALID,0.620703,
2011-02-22, 01:56:04,VALID,1001.19,VALID,0,VALID,93.7757,VALID,0,VALID,22.1422,VALID,4,VALID,0.558594,
2011-02-22, 01:57:04,VALID,1001.18,VALID,0,VALID,93.7833,VALID,0,VALID,22.1422,VALID,4,VALID,0.358594,
2011-02-22, 01:58:04,VALID,1001.17,VALID,0,VALID,93.7909,VALID,0,VALID,22.1227,VALID,11,VALID,0.616016,
2011-02-22, 01:59:04,VALID,1001.14,VALID,0,VALID,93.7833,VALID,0,VALID,22.1227,VALID,31,VALID,0.478125,
2011-02-22, 02:00:04,VALID,1001.13,VALID,0,VALID,93.8138,VALID,0,VALID,22.082,VALID,66,VALID,0.767578,
2011-02-22, 02:01:04,VALID,1001.1,VALID,0,VALID,93.7985,VALID,0,VALID,22.0625,VALID,71,VALID,0.717969,
2011-02-22, 02:02:04,VALID,1001.07,VALID,0,VALID,93.7909,VALID,0,VALID,22.0837,VALID,71,VALID,0.716016,
2011-02-22, 02:03:04,VALID,1001.05,VALID,0,VALID,93.8062,VALID,0,VALID,22.0625,VALID,71,VALID,0.507031,
2011-02-22, 02:04:04,VALID,1001.02,VALID,0,VALID,93.7985,VALID,0,VALID,22.0837,VALID,71,VALID,0.546875,
2011-02-22, 02:05:04,VALID,1001.04,VALID,0,VALID,93.7985,VALID,0,VALID,22.0837,VALID,71,VALID,0.696094,
2011-02-22, 02:06:04,VALID,1001.03,VALID,0,VALID,93.8138,VALID,0,VALID,22.0837,VALID,71,VALID,0.638281,
2011-02-22, 02:07:04,VALID,1001.02,VALID,0,VALID,93.7833,VALID,0,VALID,22.0837,VALID,71,VALID,0.667188,
2011-02-22, 02:08:04,VALID,1000.99,VALID,0,VALID,93.8214,VALID,0,VALID,22.0837,VALID,71,VALID,1.01914,
2011-02-22, 02:09:04,VALID,1000.98,VALID,0,VALID,93.8138,VALID,0,VALID,22.0837,VALID,71,VALID,1.01211,
2011-02-22, 02:10:04,VALID,1001,VALID,0,VALID,93.8138,VALID,0,VALID,22.043,VALID,70,VALID,1.13398,
2011-02-22, 02:11:04,VALID,1001.02,VALID,0,VALID,93.7909,VALID,0,VALID,22.0837,VALID,63,VALID,1.09844,
2011-02-22, 02:12:04,VALID,1001.03,VALID,0,VALID,93.8062,VALID,0,VALID,22.0837,VALID,59,VALID,1.18125,
2011-02-22, 02:13:04,VALID,1001.05,VALID,0,VALID,93.8138,VALID,0,VALID,22.0625,VALID,40,VALID,1.03477,
2011-02-22, 02:14:04,VALID,1001.05,VALID,0.5,VALID,93.8138,VALID,0,VALID,22.0642,VALID,33,VALID,1.23633,
2011-02-22, 02:15:04,VALID,1001.08,VALID,0,VALID,93.7985,VALID,0,VALID,22.0837,VALID,33,VALID,1.16055,
2011-02-22, 02:16:04,VALID,1001.08,VALID,0,VALID,93.7985,VALID,0,VALID,22.0625,VALID,33,VALID,0.927734,
2011-02-22, 02:17:04,VALID,1001.09,VALID,0,VALID,93.7909,VALID,0,VALID,22.0625,VALID,33,VALID,1.25508,
2011-02-22, 02:18:04,VALID,1001.09,VALID,0,VALID,93.8214,VALID,0,VALID,22.0642,VALID,33,VALID,1.09492,
2011-02-22, 02:19:04,VALID,1001.11,VALID,0,VALID,93.7985,VALID,0,VALID,22.0235,VALID,37,VALID,1.00508,
2011-02-22, 02:20:04,VALID,1001.13,VALID,0.5,VALID,93.8062,VALID,0,VALID,22.0642,VALID,33,VALID,0.769141,
2011-02-22, 02:21:04,VALID,1001.14,VALID,0,VALID,93.7985,VALID,0,VALID,22.0642,VALID,33,VALID,0.776953,
2011-02-22, 02:22:04,VALID,1001.18,VALID,0,VALID,93.8062,VALID,0,VALID,22.0447,VALID,11,VALID,0.846094,
2011-02-22, 02:23:04,VALID,1001.19,VALID,0,VALID,93.8062,VALID,0,VALID,22.0447,VALID,10,VALID,0.988281,
2011-02-22, 02:24:04,VALID,1001.23,VALID,0.5,VALID,93.8062,VALID,0,VALID,22.0447,VALID,17,VALID,0.879297,
2011-02-22, 02:25:04,VALID,1001.23,VALID,0,VALID,93.8062,VALID,0,VALID,22.043,VALID,33,VALID,1.16875,
2011-02-22, 02:26:04,VALID,1001.24,VALID,0,VALID,93.7909,VALID,0,VALID,22.0447,VALID,33,VALID,1.1957,
2011-02-22, 02:27:04,VALID,1001.28,VALID,0,VALID,93.8062,VALID,0,VALID,22.043,VALID,33,VALID,1.30859,
2011-02-22, 02:28:04,VALID,1001.29,VALID,0,VALID,93.8062,VALID,0,VALID,22.043,VALID,30,VALID,1.46758,
2011-02-22, 02:29:04,VALID,1001.3,VALID,0.5,VALID,93.8138,VALID,0,VALID,22.0235,VALID,20,VALID,1.69805,
2011-02-22, 02:30:04,VALID,1001.31,VALID,0,VALID,93.8138,VALID,0,VALID,22.0447,VALID,19,VALID,1.39766,
2011-02-22, 02:31:04,VALID,1001.3,VALID,0,VALID,93.7909,VALID,0,VALID,22.043,VALID,32,VALID,1.70195,
2011-02-22, 02:32:04,VALID,1001.28,VALID,0,VALID,93.8062,VALID,0,VALID,22.0447,VALID,32,VALID,1.68555,
2011-02-22, 02:33:04,VALID,1001.26,VALID,0,VALID,93.8138,VALID,0,VALID,22.0447,VALID,33,VALID,1.88594,
2011-02-22, 02:34:04,VALID,1001.24,VALID,0,VALID,93.7985,VALID,0,VALID,22.0642,VALID,37,VALID,1.12422,
2011-02-22, 02:35:04,VALID,1001.25,VALID,0.5,VALID,93.8062,VALID,0,VALID,22.0642,VALID,26,VALID,1.09883,
2011-02-22, 02:36:04,VALID,1001.24,VALID,0,VALID,93.8062,VALID,0,VALID,22.0642,VALID,30,VALID,1.22969,
2011-02-22, 02:37:04,VALID,1001.22,VALID,0,VALID,93.8138,VALID,0,VALID,22.0642,VALID,17,VALID,1.03828,
2011-02-22, 02:38:04,VALID,1001.28,VALID,0,VALID,93.8138,VALID,0,VALID,22.043,VALID,15,VALID,1.87578,
2011-02-22, 02:39:04,VALID,1001.29,VALID,0,VALID,93.7909,VALID,0,VALID,22.0642,VALID,27,VALID,1.59219,
2011-02-22, 02:40:04,VALID,1001.28,VALID,0.5,VALID,93.7985,VALID,0,VALID,22.0447,VALID,34,VALID,2.05625,
2011-02-22, 02:41:04,VALID,1001.26,VALID,0,VALID,93.8138,VALID,0,VALID,22.0447,VALID,38,VALID,2.09609,
2011-02-22, 02:42:04,VALID,1001.23,VALID,0,VALID,93.8138,VALID,0,VALID,22.0057,VALID,45,VALID,1.6707,
2011-02-22, 02:43:04,VALID,1001.23,VALID,0,VALID,93.8291,VALID,0,VALID,21.9472,VALID,36,VALID,2.26836,
2011-02-22, 02:44:04,VALID,1001.27,VALID,0.5,VALID,93.8367,VALID,0,VALID,21.9277,VALID,33,VALID,1.80156,
2011-02-22, 02:45:04,VALID,1001.28,VALID,0,VALID,93.8291,VALID,0,VALID,21.9082,VALID,29,VALID,1.2,
2011-02-22, 02:46:04,VALID,1001.28,VALID,0,VALID,93.8138,VALID,0,VALID,21.887,VALID,21,VALID,1.60352,
2011-02-22, 02:47:04,VALID,1001.26,VALID,0,VALID,93.8291,VALID,0,VALID,21.8675,VALID,6,VALID,1.57109,
2011-02-22, 02:48:04,VALID,1001.27,VALID,0,VALID,93.8443,VALID,0,VALID,21.848,VALID,17,VALID,1.21914,
2011-02-22, 02:49:04,VALID,1001.3,VALID,0.5,VALID,93.8291,VALID,0,VALID,21.8285,VALID,14,VALID,1.12891,
2011-02-22, 02:50:04,VALID,1001.28,VALID,0,VALID,93.8443,VALID,0,VALID,21.8496,VALID,5,VALID,0.959375,
2011-02-22, 02:51:04,VALID,1001.3,VALID,0,VALID,93.852,VALID,0,VALID,21.8301,VALID,12,VALID,1.22148,
2011-02-22, 02:52:04,VALID,1001.3,VALID,0,VALID,93.8443,VALID,0,VALID,21.8285,VALID,360,VALID,1.18398,
2011-02-22, 02:53:04,VALID,1001.32,VALID,0,VALID,93.8443,VALID,0,VALID,21.8301,VALID,354,VALID,1.0793,
2011-02-22, 02:54:04,VALID,1001.32,VALID,0.5,VALID,93.8596,VALID,0,VALID,21.8301,VALID,352,VALID,0.766016,
2011-02-22, 02:55:04,VALID,1001.34,VALID,0,VALID,93.852,VALID,0,VALID,21.8301,VALID,347,VALID,0.649219,
2011-02-22, 02:56:04,VALID,1001.36,VALID,0,VALID,93.8672,VALID,0,VALID,21.7895,VALID,347,VALID,0.641406,
2011-02-22, 02:57:04,VALID,1001.33,VALID,0,VALID,93.8596,VALID,0,VALID,21.8301,VALID,341,VALID,0.554688,
2011-02-22, 02:58:04,VALID,1001.35,VALID,0.5,VALID,93.8596,VALID,0,VALID,21.8301,VALID,341,VALID,0.220703,
2011-02-22, 02:59:04,VALID,1001.32,VALID,0.5,VALID,93.852,VALID,0,VALID,21.8301,VALID,341,VALID,0.065625,
2011-02-22, 03:00:04,VALID,1001.35,VALID,0,VALID,93.8443,VALID,0,VALID,21.8301,VALID,341,VALID,0,
2011-02-22, 03:01:04,VALID,1001.34,VALID,0.5,VALID,93.8672,VALID,0,VALID,21.8496,VALID,341,VALID,0.189453,
2011-02-22, 03:02:04,VALID,1001.35,VALID,0,VALID,93.8443,VALID,0,VALID,21.8301,VALID,341,VALID,0.154687,
2011-02-22, 03:03:04,VALID,1001.32,VALID,0.5,VALID,93.852,VALID,0,VALID,21.809,VALID,341,VALID,0.0195313,
2011-02-22, 03:04:04,VALID,1001.33,VALID,0,VALID,93.852,VALID,0,VALID,21.8285,VALID,341,VALID,0,
2011-02-22, 03:05:04,VALID,1001.28,VALID,0.5,VALID,93.8443,VALID,0,VALID,21.8285,VALID,341,VALID,0,
2011-02-22, 03:06:04,VALID,1001.28,VALID,0.5,VALID,93.852,VALID,0,VALID,21.8496,VALID,341,VALID,0,
2011-02-22, 03:07:04,VALID,1001.32,VALID,0,VALID,93.852,VALID,0,VALID,21.8496,VALID,341,VALID,0,
2011-02-22, 03:08:04,VALID,1001.33,VALID,0,VALID,93.852,VALID,0,VALID,21.8285,VALID,341,VALID,0,
2011-02-22, 03:09:04,VALID,1001.36,VALID,0.5,VALID,93.8367,VALID,0,VALID,21.8285,VALID,341,VALID,0.872656,
2011-02-22, 03:10:04,VALID,1001.33,VALID,0.5,VALID,93.8443,VALID,0,VALID,21.8496,VALID,346,VALID,0.704297,
2011-02-22, 03:11:04,VALID,1001.3,VALID,0,VALID,93.852,VALID,0,VALID,21.8496,VALID,346,VALID,0.732813,
2011-02-22, 03:12:04,VALID,1001.25,VALID,0,VALID,93.8596,VALID,0,VALID,21.8285,VALID,346,VALID,0.0328125,
2011-02-22, 03:13:04,VALID,1001.19,VALID,0.5,VALID,93.8443,VALID,0,VALID,21.8496,VALID,346,VALID,0.415625,
2011-02-22, 03:14:04,VALID,1001.14,VALID,0,VALID,93.8367,VALID,0,VALID,21.8301,VALID,19,VALID,0.517187,
2011-02-22, 03:15:04,VALID,1001.14,VALID,0,VALID,93.852,VALID,0,VALID,21.7895,VALID,113,VALID,0.827344,
2011-02-22, 03:16:04,VALID,1001.17,VALID,0.5,VALID,93.8443,VALID,0,VALID,21.8106,VALID,112,VALID,0.59375,
2011-02-22, 03:17:04,VALID,1001.21,VALID,0,VALID,93.8672,VALID,0,VALID,21.8106,VALID,97,VALID,0.708984,
2011-02-22, 03:18:04,VALID,1001.25,VALID,0.5,VALID,93.852,VALID,0,VALID,21.7911,VALID,35,VALID,1.02695,
2011-02-22, 03:19:04,VALID,1001.25,VALID,0,VALID,93.852,VALID,0,VALID,21.7505,VALID,35,VALID,0.913281,
2011-02-22, 03:20:04,VALID,1001.25,VALID,0.5,VALID,93.8672,VALID,0,VALID,21.77,VALID,35,VALID,0.537891,
2011-02-22, 03:21:04,VALID,1001.23,VALID,0,VALID,93.852,VALID,0,VALID,21.77,VALID,35,VALID,0.235938,
2011-02-22, 03:22:04,VALID,1001.22,VALID,0,VALID,93.8748,VALID,0,VALID,21.7716,VALID,35,VALID,0,
2011-02-22, 03:23:04,VALID,1001.2,VALID,0,VALID,93.8672,VALID,0,VALID,21.7521,VALID,35,VALID,0.0507813,
2011-02-22, 03:24:04,VALID,1001.18,VALID,0.5,VALID,93.8443,VALID,0,VALID,21.7521,VALID,35,VALID,0.380078,
2011-02-22, 03:25:04,VALID,1001.18,VALID,0,VALID,93.852,VALID,0,VALID,21.731,VALID,35,VALID,0.244141,
2011-02-22, 03:26:04,VALID,1001.16,VALID,0.5,VALID,93.8596,VALID,0,VALID,21.731,VALID,35,VALID,0.476563,
2011-02-22, 03:27:04,VALID,1001.19,VALID,0,VALID,93.8825,VALID,0,VALID,21.7716,VALID,35,VALID,0.394922,
2011-02-22, 03:28:04,VALID,1001.22,VALID,0.5,VALID,93.8596,VALID,0,VALID,21.7505,VALID,35,VALID,0.298438,
2011-02-22, 03:29:04,VALID,1001.24,VALID,0,VALID,93.8443,VALID,0,VALID,21.7716,VALID,35,VALID,0.123047,
2011-02-22, 03:30:04,VALID,1001.25,VALID,0,VALID,93.8825,VALID,0,VALID,21.7505,VALID,35,VALID,0.00546875,
2011-02-22, 03:31:04,VALID,1001.28,VALID,0.5,VALID,93.8672,VALID,0,VALID,21.7505,VALID,35,VALID,0.0046875,
2011-02-22, 03:32:04,VALID,1001.31,VALID,0,VALID,93.8748,VALID,0,VALID,21.7505,VALID,35,VALID,0.462891,
2011-02-22, 03:33:04,VALID,1001.34,VALID,0,VALID,93.8825,VALID,0,VALID,21.7505,VALID,35,VALID,0.399219,
2011-02-22, 03:34:04,VALID,1001.34,VALID,0.5,VALID,93.8672,VALID,0,VALID,21.7521,VALID,35,VALID,0.232422,
2011-02-22, 03:35:04,VALID,1001.33,VALID,0,VALID,93.8748,VALID,0,VALID,21.731,VALID,35,VALID,0.264844,
2011-02-22, 03:36:04,VALID,1001.3,VALID,0,VALID,93.8672,VALID,0,VALID,21.7521,VALID,35,VALID,0.1,
2011-02-22, 03:37:04,VALID,1001.3,VALID,0,VALID,93.8825,VALID,0,VALID,21.731,VALID,35,VALID,0,
2011-02-22, 03:38:04,VALID,1001.27,VALID,0,VALID,93.8825,VALID,0,VALID,21.731,VALID,36,VALID,0.546094,
2011-02-22, 03:39:04,VALID,1001.26,VALID,0.5,VALID,93.8825,VALID,0,VALID,21.7326,VALID,39,VALID,0.572266,
2011-02-22, 03:40:04,VALID,1001.3,VALID,0,VALID,93.8672,VALID,0,VALID,21.7131,VALID,39,VALID,0.335156,
2011-02-22, 03:41:04,VALID,1001.27,VALID,0,VALID,93.8748,VALID,0,VALID,21.692,VALID,39,VALID,0.386328,
2011-02-22, 03:42:04,VALID,1001.29,VALID,0,VALID,93.8748,VALID,0,VALID,21.7115,VALID,39,VALID,0.570313,
2011-02-22, 03:43:04,VALID,1001.28,VALID,0,VALID,93.8672,VALID,0,VALID,21.7115,VALID,174,VALID,0.809375,
2011-02-22, 03:44:04,VALID,1001.25,VALID,0.5,VALID,93.8901,VALID,0,VALID,21.7115,VALID,189,VALID,1.14492,
2011-02-22, 03:45:04,VALID,1001.2,VALID,0,VALID,93.8748,VALID,0,VALID,21.692,VALID,180,VALID,1.06211,